Regional Weather Roundup
Issued by NWS Boston, MA

Home | Current Version | Previous Version | Text Only | Print | Product List | Glossary On
Versions: 1 2 3 4 5 6 7 8 9 10 11 12 13 14 15 16 17 18 19 20 21 22 23 24 25 26 27 28 29 30 31 32 33 34 35 36 37 38 39 40 41 42 43 44 45 46 47 48 49
000
ASUS41 KBOX 240910
RWRBOX

REGIONAL WEATHER ROUNDUP
NATIONAL WEATHER SERVICE TAUNTON MA
400 AM EST MON NOV 24 2014

NOTE:  "FAIR" INDICATES FEW OR NO CLOUDS BELOW 12,000 FEET WITH NO
SIGNIFICANT WEATHER AND/OR OBSTRUCTIONS TO VISIBILITY.  THE FOLLOWING
OBSERVATION LOCATIONS DO NOT REPORT PRESENT WEATHER...PROVINCETOWN...
SMITHFIELD...BLOCK ISLAND...KEENE...AND OXFORD.

MAZALL-241000-
EASTERN MASSACHUSETTS

CITY           SKY/WX    TMP DP  RH WIND       PRES   REMARKS
BOSTON         CLOUDY    45  44  97 E5        30.00F FOG
BEVERLY        CLOUDY    48  44  86 SE9       30.00F
LAWRENCE       CLOUDY    45  40  82 VRB3      30.01F
BEDFORD        CLOUDY    43  38  82 E5        29.97F
BLUE HILL        N/A     48  48 100 SE18G25   29.96F
NORWOOD        CLOUDY    42  40  92 W3        29.98F FOG
MARSHFIELD     MOCLDY   N/A N/A N/A SE7       30.02F
PLYMOUTH       CLOUDY    53  52  96 VRB5      30.01F
TAUNTON        LGT RAIN  52  50  93 SE6       29.99F
NEW BEDFORD    CLOUDY    53  52  96 SE10      29.99F
$$

MAZALL-241000-
CAPE COD AND THE ISLANDS

CITY           SKY/WX    TMP DP  RH WIND       PRES   REMARKS
FALMOUTH       CLOUDY    54  52  94 SE16G22   30.02F
HYANNIS        CLOUDY    54  50  86 SE9       30.02F
CHATHAM        MOCLDY    53  51  93 SE9       30.04F
PROVINCETOWN   MOCLDY    52  48  87 SE12      30.03F
NANTUCKET      CLOUDY    53  49  86 SE15      30.04F
MARTHAS VNYRD  CLOUDY    55  52  89 SE14      30.01F
$$

MAZALL-241000-
CENTRAL AND WESTERN MASSACHUSETTS

CITY           SKY/WX    TMP DP  RH WIND       PRES   REMARKS
WORCESTER      FOG       42  41  96 E5        29.94F VSB 1/4
FITCHBURG      CLOUDY    40  33  76 CALM      29.99F
ORANGE         LGT RAIN  36  33  89 CALM      29.94F
SPRINGFIELD    LGT RAIN  41  39  93 NE2       29.89F
WESTFIELD      LGT RAIN  39  36  89 N3        29.89F FOG
NORTH ADAMS    LGT RAIN  47  43  86 E15G28    29.84F
PITTSFIELD     LGT RAIN  44  43  96 NE8       29.81F FOG
$$

RIZALL-241000-
RHODE ISLAND

CITY           SKY/WX    TMP DP  RH WIND       PRES   REMARKS
PROVIDENCE     LGT RAIN  44  42  93 S3        29.97F FOG
NEWPORT        LGT RAIN  56  53  90 SE14G21   29.98F FOG
BLOCK ISLAND   CLOUDY    57  54  88 SE18G28   29.95F
SMITHFIELD     CLOUDY    48  43  81 SE8       29.96F
WESTERLY       LGT RAIN  57  55  93 SE14      29.95F FOG
$$

CTZALL-241000-
CONNECTICUT

CITY           SKY/WX    TMP DP  RH WIND       PRES   REMARKS
BRADLEY INTL   RAIN      42  38  85 N5        29.88F FOG
HARTFORD       LGT RAIN  43  41  93 VRB5      29.89F FOG
BRIDGEPORT     LGT RAIN  56  55  97 SE12      29.84F FOG
DANBURY        RAIN      52  48  86 SE7       29.83F FOG
GROTON         LGT RAIN  56  55  97 SE20      29.91F FOG
NEW HAVEN      RAIN      57  53  86 SE13      29.86F FOG
CHESTER        LGT RAIN  55  55 100 SE10G20   29.90F
MERIDEN        RAIN      44  42  93 NW6       29.88F FOG
WILLIMANTIC    LGT RAIN  40  37  89 CALM      29.93F FOG
OXFORD         CLOUDY    54  48  82 SE15G22   29.86F
$$

MEZ002-015-021-024-NHZ003-005-008-011-012-014-VTZ005-008-241000-
NORTHERN NEW ENGLAND

CITY           SKY/WX    TMP DP  RH WIND       PRES   REMARKS
PORTLAND ME    MOCLDY    39  38  96 CALM      30.04F FOG
BANGOR ME      PTCLDY    43  40  89 S7        30.07F
CONCORD NH     CLOUDY    39  35  86 CALM      29.99F
MANCHESTER NH  CLOUDY    44  33  65 CALM      29.98F
NASHUA NH      CLOUDY    42  35  76 CALM      30.00F
PORTSMOUTH NH  CLOUDY    45  38  77 E2        30.01F
JAFFREY NH     LGT RAIN  35  31  85 CALM      29.94F
KEENE NH       CLOUDY    36  34  93 CALM      29.93F
BURLINGTON VT  CLOUDY    49  37  63 S8        29.78F
MT. WASHINGTON FOG       32  32 100 S37         N/A  VSB 0   WCI  16
$$

NYZ052-076-241000-
EASTERN NEW YORK

CITY           SKY/WX    TMP DP  RH WIND       PRES   REMARKS
ALBANY         LGT RAIN  48  43  82 SE5       29.78F
NEW YORK CITY  RAIN      59  57  93 SE21G29   29.78F FOG
$$

ANZALL-241000-
MARINE OBSERVATIONS

STATION/POSITION TIME  TEMP    WIND        PRES    VSBY  WAVE
                       AIR SEA DIR/SP/G                  HT/PER
                 (UTC) (F)     (DEG/KT/KT) (MB)    (MI)  (FT/S)
BOSTON BUOY      0850   49 50  140/ 12/ 14 1016.2F         1/ 3
BUZZARDS BAY     0800          140/ 19/ 20 1016.7F
NANTUCKET SOUND  0850   52 47  140/ 16/ 17 1016.4F         1/ 3
MASS BAY-STELLWA 0804   50 50  140/  8/ 10   N/A    1 7/8  1/ 8
ISLE OF SHOALS   0900   49     150/ 11/ 12 1015.7F
S OF BLOCK IS    0808      56                N/A           4/ 7
$$

......................KEY.........................
  SKY/WX - SKY CONDITION/PRESENT WEATHER
  TMP    - TEMPERATURE IN FAHRENHEIT
  DWPT   - DEWPOINT IN FAHRENHEIT
  RH     - RELATIVE HUMIDITY IN PERCENT
  WIND   - DIRECTION AND SPEED IN MPH
  PRES   - MEAN SEA LEVEL PRESSURE IN INCHES OF HG
  WCI    - WIND CHILL INDEX
  VSB    - VISIBILITY IN MILES
  HX     - HEAT INDEX
  TC     - TEMPERATURE IN CELSIUS
  VRB    - VARIABLE WIND DIRECTION
  N/A    - NOT AVAILABLE


USA.gov is the U.S. government's official web portal to all federal, state and local government web resources and services.